From 06/27/2020 00:00 to 07/13/2020 00:00

Date LAKE ELEVATION [FT] PRECIPITATION INCREMENT [IN] PRECIPITATION TOTAL [IN] AIR TEMPERATURE [F] RELATIVE HUMIDITY [%] RELEASE [CFS]
07/11/2020 18:00 -- -- -- -- -- 2.0
07/11/2020 17:00 115.80 0.00 -- 87.0 -- 2.0
07/11/2020 16:00 115.81 0.00 -- 88.0 -- 2.0
07/11/2020 15:00 115.81 0.00 -- 86.0 -- 2.0
07/11/2020 14:00 115.81 0.00 -- 86.0 -- 2.0
07/11/2020 13:00 115.81 0.00 -- 86.0 -- 2.0
07/11/2020 12:00 115.81 0.00 -- 83.0 -- 2.0
07/11/2020 11:00 115.80 0.00 -- 79.0 -- 2.0
07/11/2020 10:00 115.80 0.00 -- 76.0 -- 2.0
07/11/2020 09:00 115.80 0.00 -- 74.0 -- 2.0
07/11/2020 08:00 115.81 0.00 -- 72.0 -- 2.0
07/11/2020 07:00 115.81 0.00 -- 72.0 -- 2.0
07/11/2020 06:00 115.81 0.00 -- 72.0 -- 2.0
07/11/2020 05:00 115.81 0.00 -- 72.0 -- 2.0
07/11/2020 04:00 115.81 0.01 -- 72.0 -- 2.0
07/11/2020 03:00 115.81 0.08 -- 71.0 -- 2.0
07/11/2020 02:00 115.80 0.09 -- 70.0 -- 1.3
07/11/2020 01:00 115.79 0.01 -- 70.0 -- 1.0
07/11/2020 00:00 115.79 0.10 -- 71.0 -- 1.0
07/10/2020 23:00 115.78 0.00 -- 71.0 -- 1.0
07/10/2020 22:00 115.79 0.00 -- 70.0 -- 1.0
07/10/2020 21:00 115.78 0.00 -- 71.0 -- 1.0
07/10/2020 20:00 115.78 0.00 -- 71.0 -- 1.0
07/10/2020 19:00 115.78 0.00 -- 72.0 -- 1.0
07/10/2020 18:00 115.79 0.00 -- 75.0 -- 1.0
07/10/2020 17:00 115.79 0.00 -- 77.0 -- 1.0
07/10/2020 16:00 115.79 0.00 -- 80.0 -- 1.0
07/10/2020 15:00 115.79 0.00 -- 82.0 -- 1.0
07/10/2020 14:00 115.79 0.00 -- 82.0 -- 1.0
07/10/2020 13:00 115.79 0.00 -- 84.0 -- 1.0
07/10/2020 12:00 115.80 0.00 -- 83.0 -- 1.3
07/10/2020 11:00 115.80 0.00 -- 82.0 -- 1.5
07/10/2020 10:00 115.80 0.00 -- 79.0 -- 1.8
07/10/2020 09:00 115.80 0.00 -- 76.0 -- 1.5
07/10/2020 08:00 115.80 0.00 -- 71.0 -- 1.5
07/10/2020 07:00 115.80 0.00 -- 68.0 -- 1.8
07/10/2020 06:00 115.80 0.00 -- 68.0 -- 1.8
07/10/2020 05:00 115.80 0.00 -- 69.0 -- 1.0
07/10/2020 04:00 115.80 0.00 -- 70.0 -- 1.5
07/10/2020 03:00 115.80 0.00 -- 70.0 -- 1.0
07/10/2020 02:00 115.79 0.00 -- 71.0 -- 1.0
07/10/2020 01:00 115.80 0.00 -- 71.0 -- 1.0
07/10/2020 00:00 115.79 0.00 -- 72.0 -- 1.0
07/09/2020 23:00 115.80 0.00 -- 73.0 -- 1.0
07/09/2020 22:00 115.80 0.00 -- 76.0 -- 1.0
07/09/2020 21:00 115.79 0.00 -- 79.0 -- 1.0
07/09/2020 20:00 115.79 0.00 -- 82.0 -- 1.0
07/09/2020 19:00 115.79 0.00 -- 83.0 -- 1.0
07/09/2020 18:00 115.79 0.00 -- 83.0 -- 1.0
07/09/2020 17:00 115.79 0.00 -- 82.0 -- 1.0
07/09/2020 16:00 115.79 0.00 -- 82.0 -- 1.0
07/09/2020 15:00 115.79 0.00 -- 84.0 -- 1.0
07/09/2020 14:00 115.80 0.00 -- 83.0 -- 1.3
07/09/2020 13:00 115.80 0.00 -- 83.0 -- 2.0
07/09/2020 12:00 115.80 0.00 -- 82.0 -- 2.0
07/09/2020 11:00 115.80 0.01 -- 78.0 -- 2.0
07/09/2020 10:00 115.81 0.00 -- 75.0 -- 2.0
07/09/2020 09:00 115.81 0.00 -- 73.0 -- 2.0
07/09/2020 08:00 115.80 0.00 -- 70.0 -- 2.0
07/09/2020 07:00 115.80 0.00 -- 67.0 -- 1.8
07/09/2020 06:00 115.80 0.00 -- 68.0 -- 2.0
07/09/2020 05:00 115.80 0.00 -- 67.0 -- 1.8
07/09/2020 04:00 115.80 0.00 -- 67.0 -- 1.8
07/09/2020 03:00 115.80 0.00 -- 68.0 -- 1.8
07/09/2020 02:00 115.80 0.00 -- 68.0 -- 1.3
07/09/2020 01:00 115.80 0.00 -- 68.0 -- 1.3
07/09/2020 00:00 115.79 0.00 0.01 70.0 -- 1.0
07/08/2020 23:00 115.81 0.00 -- 73.0 -- 1.8
07/08/2020 22:00 115.80 0.00 -- 73.0 -- 2.0
07/08/2020 21:00 115.81 0.00 -- 75.0 -- 2.0
07/08/2020 20:00 115.81 0.07 -- 76.0 -- 1.8
07/08/2020 19:00 115.79 0.00 -- 80.0 -- 1.0
07/08/2020 18:00 115.79 0.00 -- 83.0 -- 1.0
07/08/2020 17:00 115.79 0.00 -- 84.0 -- 1.0
07/08/2020 16:00 115.80 0.00 -- 84.0 -- 1.8
07/08/2020 15:00 115.80 0.00 -- 83.0 -- 2.0
07/08/2020 14:00 115.80 0.00 -- 81.0 -- 1.3
07/08/2020 13:00 115.79 0.00 -- 80.0 -- 1.0
07/08/2020 12:00 115.79 0.00 -- 76.0 -- 1.0
07/08/2020 11:00 115.79 0.00 -- 73.0 -- 1.0
07/08/2020 10:00 115.79 0.00 -- 71.0 -- 1.0
07/08/2020 09:00 115.79 0.00 -- 70.0 -- 1.0
07/08/2020 08:00 115.79 0.00 -- 68.0 -- 1.0
07/08/2020 07:00 115.79 0.00 -- 67.0 -- 1.0
07/08/2020 06:00 115.79 0.00 -- 67.0 -- 1.0
07/08/2020 05:00 115.79 0.00 -- 67.0 -- 1.0
07/08/2020 04:00 115.79 0.00 -- 67.0 -- 1.0
07/08/2020 03:00 115.79 0.00 -- 67.0 -- 1.0
07/08/2020 02:00 115.79 0.00 -- 68.0 -- 1.0
07/08/2020 01:00 115.79 0.00 -- 67.0 -- 1.0
07/08/2020 00:00 115.79 0.00 0.07 66.0 -- 1.0
07/07/2020 23:00 115.79 0.00 -- 68.0 -- 1.0
07/07/2020 22:00 115.79 0.00 -- 68.0 -- 1.0
07/07/2020 21:00 115.79 0.00 -- 71.0 -- 1.3
07/07/2020 20:00 115.80 0.00 -- 74.0 -- 1.3
07/07/2020 19:00 115.80 0.00 -- 76.0 -- 2.0
07/07/2020 18:00 115.80 0.00 -- 77.0 -- 1.0
07/07/2020 17:00 115.80 0.00 -- 78.0 -- 2.0
07/07/2020 16:00 115.81 0.00 -- 78.0 -- 2.0
07/07/2020 15:00 115.81 0.00 -- 77.0 -- 2.0
07/07/2020 14:00 115.82 0.00 -- 76.0 -- 2.5
07/07/2020 13:00 115.82 0.00 -- 76.0 -- 3.0
07/07/2020 12:00 115.83 0.00 -- 73.0 -- 3.3
07/07/2020 11:00 115.83 0.00 -- 72.0 -- 3.8
07/07/2020 10:00 115.84 0.00 -- 66.0 -- 4.0
07/07/2020 09:00 115.84 0.00 -- 64.0 -- 4.0
07/07/2020 08:00 115.85 0.00 -- 63.0 -- 4.8
07/07/2020 07:00 115.86 0.00 -- 61.0 -- 5.3
07/07/2020 06:00 115.87 0.00 -- 59.0 -- 5.8
07/07/2020 05:00 115.87 0.00 -- 58.0 -- 5.5
07/07/2020 04:00 115.86 0.00 -- 57.0 -- 5.0
07/07/2020 03:00 115.86 0.00 -- 57.0 -- 5.0
07/07/2020 02:00 115.86 0.00 -- 58.0 -- 4.5
07/07/2020 01:00 115.85 0.00 -- 60.0 -- 4.0
07/07/2020 00:00 115.84 0.00 0.00 60.0 -- 4.0
07/06/2020 23:00 115.84 0.00 -- 62.0 -- 3.5
07/06/2020 22:00 115.82 0.00 -- 63.0 -- 2.8
07/06/2020 21:00 115.83 0.00 -- 67.0 -- 3.5
07/06/2020 20:00 115.84 0.00 -- 69.0 -- 4.0
07/06/2020 19:00 115.85 0.00 -- 72.0 -- 4.0
07/06/2020 18:00 115.84 0.00 -- 72.0 -- 4.0
07/06/2020 17:00 115.85 0.00 -- 73.0 -- 4.0
07/06/2020 16:00 115.84 0.00 -- 73.0 -- 4.0
07/06/2020 15:00 115.85 0.00 -- 74.0 -- 4.5
07/06/2020 14:00 115.86 0.00 -- 73.0 -- 5.0
07/06/2020 13:00 115.87 0.00 -- 73.0 -- 5.0
07/06/2020 12:00 115.86 0.00 -- 71.0 -- 5.3
07/06/2020 11:00 115.86 0.00 -- 71.0 -- 5.0
07/06/2020 10:00 115.87 0.00 -- 69.0 -- 6.0
07/06/2020 09:00 115.87 0.00 -- 66.0 -- 6.3
07/06/2020 08:00 115.88 0.00 -- 65.0 -- 7.0
07/06/2020 07:00 115.88 0.00 -- 64.0 -- 6.5
07/06/2020 06:00 115.88 0.00 -- 64.0 -- 7.0
07/06/2020 05:00 115.88 0.00 -- 63.0 -- 6.8
07/06/2020 04:00 115.88 0.00 -- 63.0 -- 6.5
07/06/2020 03:00 115.88 0.00 -- 63.0 -- 6.5
07/06/2020 02:00 115.88 0.00 -- 64.0 -- 6.3
07/06/2020 01:00 115.87 0.00 -- 64.0 -- 5.8
07/06/2020 00:00 115.84 0.90 -- 64.0 -- 4.5
07/05/2020 23:00 115.77 0.38 -- 65.0 -- 0.5
07/05/2020 22:00 115.74 0.00 -- 65.0 -- 0.0
07/05/2020 21:00 115.76 0.00 -- 68.0 -- 0.0
07/05/2020 20:00 115.75 0.00 -- 70.0 -- 0.0
07/05/2020 19:00 115.74 0.01 -- 71.0 -- 0.0
07/05/2020 18:00 115.73 0.00 -- 74.0 -- 0.0
07/05/2020 17:00 115.72 0.00 -- 75.0 -- 0.0
07/05/2020 16:00 115.72 0.00 -- 78.0 -- 0.0
07/05/2020 15:00 115.73 0.00 -- 78.0 -- 0.0
07/05/2020 14:00 115.74 0.00 -- 75.0 -- 0.0
07/05/2020 13:00 115.76 0.00 -- 72.0 -- 0.0
07/05/2020 12:00 115.77 0.00 -- 69.0 -- 0.5
07/05/2020 11:00 115.78 0.00 -- 67.0 -- 1.0
07/05/2020 10:00 115.77 0.00 -- 65.0 -- 0.8
07/05/2020 09:00 115.78 0.00 -- 64.0 -- 0.8
07/05/2020 08:00 115.77 0.00 -- 64.0 -- 0.0
07/05/2020 07:00 115.76 0.00 -- 63.0 -- 0.0
07/05/2020 06:00 115.76 0.00 -- 63.0 -- 0.0
07/05/2020 05:00 115.74 0.00 -- 63.0 -- 0.0
07/05/2020 04:00 115.74 0.00 -- 63.0 -- 0.0
07/05/2020 03:00 115.75 0.00 -- 63.0 -- 0.0
07/05/2020 02:00 115.74 0.00 -- 62.0 -- 0.0
07/05/2020 01:00 115.74 0.00 -- 62.0 -- 0.0
07/05/2020 00:00 115.73 0.00 1.29 63.0 -- 0.0
07/04/2020 23:00 115.72 0.00 -- 65.0 -- 0.0
07/04/2020 22:00 115.74 0.00 -- 66.0 -- 0.0
07/04/2020 21:00 115.75 0.00 -- 69.0 -- 0.0
07/04/2020 20:00 115.74 0.00 -- 71.0 -- 0.0
07/04/2020 19:00 115.72 0.00 -- 72.0 -- 0.0
07/04/2020 18:00 115.72 0.00 -- 74.0 -- 0.0
07/04/2020 17:00 115.74 0.00 -- 75.0 -- 0.0
07/04/2020 16:00 115.73 0.00 -- 75.0 -- 0.0
07/04/2020 15:00 115.74 0.00 -- 75.0 -- 0.0
07/04/2020 14:00 115.74 0.00 -- 76.0 -- 0.0
07/04/2020 13:00 115.75 0.00 -- 74.0 -- 0.0
07/04/2020 12:00 115.76 0.00 -- 72.0 -- 0.0
07/04/2020 11:00 115.77 0.00 -- 69.0 -- 0.0
07/04/2020 10:00 115.76 0.00 -- 65.0 -- 0.0
07/04/2020 09:00 115.77 0.00 -- 63.0 -- 0.8
07/04/2020 08:00 115.78 0.00 -- 63.0 -- 1.0
07/04/2020 07:00 115.78 0.00 -- 62.0 -- 1.0
07/04/2020 06:00 115.79 0.00 -- 61.0 -- 1.0
07/04/2020 05:00 115.78 0.00 -- 61.0 -- 1.0
07/04/2020 04:00 115.79 0.00 -- 61.0 -- 1.0
07/04/2020 03:00 115.79 0.00 -- 62.0 -- 1.0
07/04/2020 02:00 115.78 0.00 -- 62.0 -- 1.0
07/04/2020 01:00 115.78 0.00 -- 62.0 -- 1.0
07/04/2020 00:00 115.79 0.00 0.00 63.0 -- 1.0
07/03/2020 23:00 115.79 0.00 -- 63.0 -- 1.0
07/03/2020 22:00 115.79 0.00 -- 63.0 -- 1.0
07/03/2020 21:00 115.78 0.00 -- 63.0 -- 1.0
07/03/2020 20:00 115.77 0.00 -- 64.0 -- 0.8
07/03/2020 19:00 115.78 0.00 -- 64.0 -- 0.8
07/03/2020 18:00 115.78 0.00 -- 64.0 -- 1.0
07/03/2020 17:00 115.78 0.00 -- 66.0 -- 1.0
07/03/2020 16:00 115.79 0.00 -- 67.0 -- 1.0
07/03/2020 15:00 115.79 0.00 -- 68.0 -- 1.0
07/03/2020 14:00 115.78 0.00 -- 67.0 -- 1.0
07/03/2020 13:00 115.80 0.00 -- 67.0 -- 2.0
07/03/2020 12:00 115.81 0.00 -- 67.0 -- 1.5
07/03/2020 11:00 115.79 0.00 -- 66.0 -- 1.0
07/03/2020 10:00 115.80 0.00 -- 66.0 -- 1.0
07/03/2020 09:00 115.79 0.00 -- 67.0 -- 1.8
07/03/2020 08:00 115.80 0.00 -- 69.0 -- 1.3
07/03/2020 07:00 115.79 0.00 -- 72.0 -- 1.0
07/03/2020 06:00 115.77 0.00 -- 73.0 -- 0.0
07/03/2020 05:00 115.76 0.00 -- 72.0 -- 0.0
07/03/2020 04:00 115.74 0.00 -- 72.0 -- 0.0
07/03/2020 03:00 115.75 0.00 -- 72.0 -- 0.0
07/03/2020 02:00 115.75 0.00 -- 72.0 -- 0.0
07/03/2020 01:00 115.74 0.00 -- 72.0 -- 0.0
07/03/2020 00:00 115.72 0.00 -- 73.0 -- 0.0
07/02/2020 23:00 115.70 0.00 -- 76.0 -- 0.0
07/02/2020 22:00 115.71 0.00 -- 79.0 -- 0.0
07/02/2020 21:00 115.71 0.00 -- 80.0 -- 0.0
07/02/2020 20:00 115.69 0.00 -- 84.0 -- 0.0
07/02/2020 19:00 115.69 0.00 -- 89.0 -- 0.0
07/02/2020 18:00 115.71 0.00 -- 89.0 -- 0.0
07/02/2020 17:00 115.71 0.00 -- 88.0 -- 0.0
07/02/2020 16:00 115.71 0.00 -- 87.0 -- 0.0
07/02/2020 15:00 115.70 0.00 -- 85.0 -- 0.0
07/02/2020 14:00 115.72 0.00 -- 83.0 -- 0.0
07/02/2020 13:00 115.72 0.00 -- 81.0 -- 0.0
07/02/2020 12:00 115.74 0.00 -- 79.0 -- 0.0
07/02/2020 11:00 115.76 0.00 -- 76.0 -- 0.0
07/02/2020 10:00 115.78 0.00 -- 72.0 -- 1.0
07/02/2020 09:00 115.78 0.00 -- 67.0 -- 1.0
07/02/2020 08:00 115.79 0.00 -- 63.0 -- 1.0
07/02/2020 07:00 115.78 0.00 -- 62.0 -- 0.8
07/02/2020 06:00 115.78 0.00 -- 62.0 -- 0.3
07/02/2020 05:00 115.76 0.00 -- 61.0 -- 0.0
07/02/2020 04:00 115.75 0.00 -- 62.0 -- 0.0
07/02/2020 03:00 115.75 0.00 -- 61.0 -- 0.0
07/02/2020 02:00 115.74 0.00 -- 62.0 -- 0.0
07/02/2020 01:00 115.74 0.00 -- 63.0 -- 0.0
07/02/2020 00:00 115.74 0.00 0.00 64.0 -- 0.0
07/01/2020 23:00 115.75 0.00 -- 66.0 -- 0.0
07/01/2020 22:00 115.76 0.00 -- 68.0 -- 0.0
07/01/2020 21:00 115.75 -- -- 70.0 -- 0.0
07/01/2020 20:00 115.75 -- -- 72.0 -- 0.0
07/01/2020 19:00 115.74 0.00 -- 74.0 -- 0.0
07/01/2020 18:00 115.74 0.00 -- 74.0 -- 0.0
07/01/2020 17:00 115.74 0.00 -- 75.0 -- 0.0
07/01/2020 16:00 115.74 0.00 -- 72.0 -- 0.0
07/01/2020 15:00 115.76 0.00 -- 73.0 -- 0.0
07/01/2020 14:00 115.76 0.00 -- 71.0 -- 0.0
07/01/2020 13:00 115.77 0.00 -- 69.0 -- 0.0
07/01/2020 12:00 115.77 0.00 -- 68.0 -- 1.0
07/01/2020 11:00 115.78 0.01 -- 66.0 -- 1.0
07/01/2020 10:00 115.78 0.00 -- 66.0 -- 1.0
07/01/2020 09:00 115.77 0.00 -- 64.0 -- 1.0
07/01/2020 08:00 115.77 0.00 -- 63.0 -- 1.0
07/01/2020 07:00 115.78 0.01 -- 63.0 -- 1.0
07/01/2020 06:00 115.78 0.00 -- 63.0 -- 1.0
07/01/2020 05:00 115.77 0.00 -- 64.0 -- 0.3
07/01/2020 04:00 115.77 0.01 -- 64.0 -- 0.0
07/01/2020 03:00 115.77 0.00 -- 64.0 -- 0.8
07/01/2020 02:00 115.77 0.01 -- 64.0 -- 0.0
07/01/2020 01:00 115.77 0.00 -- 65.0 -- 0.0
07/01/2020 00:00 115.77 0.00 -- 65.0 -- 0.0
06/30/2020 23:00 115.77 0.01 -- 65.0 -- 0.0
06/30/2020 22:00 115.76 0.01 -- 65.0 -- 0.0
06/30/2020 21:00 115.75 0.00 -- 65.0 -- 0.0
06/30/2020 20:00 115.76 0.00 -- 66.0 -- 0.0
06/30/2020 19:00 115.75 0.00 -- 67.0 -- 0.0
06/30/2020 18:00 115.75 0.00 -- 69.0 -- 0.0
06/30/2020 17:00 115.74 0.00 -- 69.0 -- 0.0
06/30/2020 16:00 115.74 0.00 -- 69.0 -- 0.0
06/30/2020 15:00 115.74 0.00 -- 67.0 -- 0.0
06/30/2020 14:00 115.75 0.00 -- 69.0 -- 0.0
06/30/2020 13:00 115.75 0.01 -- 68.0 -- 0.0
06/30/2020 12:00 115.75 0.00 -- 66.0 -- 0.0
06/30/2020 11:00 115.75 0.01 -- 65.0 -- 0.0
06/30/2020 10:00 115.75 0.00 -- 65.0 -- 0.0
06/30/2020 09:00 115.76 0.00 -- 65.0 -- 0.0
06/30/2020 08:00 115.75 0.01 -- 64.0 -- 0.0
06/30/2020 07:00 115.75 0.00 -- 64.0 -- 0.0
06/30/2020 06:00 115.74 0.00 -- 63.0 -- 0.0
06/30/2020 05:00 115.75 0.01 -- 63.0 -- 0.0
06/30/2020 04:00 115.75 0.00 -- 63.0 -- 0.0
06/30/2020 03:00 115.75 0.00 -- 62.0 -- 0.0
06/30/2020 02:00 115.74 0.01 -- 62.0 -- 0.0
06/30/2020 01:00 115.75 0.01 -- 62.0 -- 0.0
06/30/2020 00:00 115.74 0.01 0.08 64.0 -- 0.0
06/29/2020 23:00 115.74 0.02 -- 64.0 -- 0.0
06/29/2020 22:00 115.74 0.05 -- 63.0 -- 0.0
06/29/2020 21:00 115.73 0.04 -- 63.0 -- 0.0
06/29/2020 20:00 115.72 0.01 -- 63.0 -- 0.0
06/29/2020 19:00 115.72 0.00 -- 65.0 -- 0.0
06/29/2020 18:00 115.72 0.00 -- 66.0 -- 0.0
06/29/2020 17:00 115.72 0.00 -- 68.0 -- 0.0
06/29/2020 16:00 115.71 0.00 -- 68.0 -- 0.0
06/29/2020 15:00 115.70 0.00 -- 68.0 -- 0.0
06/29/2020 14:00 115.71 0.00 -- 69.0 -- 0.0
06/29/2020 13:00 115.71 0.00 -- 67.0 -- 0.0
06/29/2020 12:00 115.71 0.00 -- 66.0 -- 0.0
06/29/2020 11:00 115.72 0.00 -- 67.0 -- 0.0
06/29/2020 10:00 115.73 0.01 -- 67.0 -- 0.0
06/29/2020 09:00 115.73 0.00 -- 67.0 -- 0.0
06/29/2020 08:00 115.75 0.00 -- 67.0 -- 0.0
06/29/2020 07:00 115.75 0.00 -- 67.0 -- 0.0
06/29/2020 06:00 115.74 0.00 -- 67.0 -- 0.0
06/29/2020 05:00 115.73 0.02 -- 67.0 -- 0.0
06/29/2020 04:00 115.73 0.69 -- 67.0 -- 0.0
06/29/2020 03:00 115.71 0.05 -- 67.0 -- 0.0
06/29/2020 02:00 115.70 0.01 -- 67.0 -- 0.0
06/29/2020 01:00 115.69 0.02 -- 67.0 -- 0.0
06/29/2020 00:00 115.69 0.00 -- 68.0 -- 0.0
06/28/2020 23:00 115.68 0.01 -- 68.0 -- 0.0
06/28/2020 22:00 115.70 0.00 -- 68.0 -- 0.0
06/28/2020 21:00 115.68 0.00 -- 69.0 -- 0.0
06/28/2020 20:00 115.67 0.02 -- 70.0 -- 0.0
06/28/2020 19:00 115.67 0.12 -- 70.0 -- 0.0
06/28/2020 18:00 115.68 0.04 -- 69.0 -- 0.0
06/28/2020 17:00 115.68 0.01 -- 70.0 -- 0.0
06/28/2020 16:00 115.67 0.00 -- 80.0 -- 0.0
06/28/2020 15:00 115.66 0.01 -- 77.0 -- 0.0
06/28/2020 14:00 115.61 0.00 -- 76.0 -- 0.0
06/28/2020 13:00 115.62 0.00 -- 80.0 -- 0.0
06/28/2020 12:00 115.66 0.00 -- 78.0 -- 0.0
06/28/2020 11:00 115.68 0.00 -- 77.0 -- 0.0
06/28/2020 10:00 115.69 0.00 -- 73.0 -- 0.0
06/28/2020 09:00 115.70 0.00 -- 70.0 -- 0.0
06/28/2020 08:00 115.69 0.00 -- 66.0 -- 0.0
06/28/2020 07:00 115.69 0.00 -- 61.0 -- 0.0
06/28/2020 06:00 115.67 0.00 -- 61.0 -- 0.0
06/28/2020 05:00 115.67 0.00 -- 62.0 -- 0.0
06/28/2020 04:00 115.66 0.00 -- 63.0 -- 0.0
06/28/2020 03:00 115.64 0.00 -- 64.0 -- 0.0
06/28/2020 02:00 115.64 0.00 -- 65.0 -- 0.0
06/28/2020 01:00 115.63 0.00 -- 67.0 -- 0.0
06/28/2020 00:00 115.63 0.00 -- 69.0 -- 0.0
06/27/2020 23:00 115.65 0.00 -- 70.0 -- 0.0
06/27/2020 22:00 115.64 0.00 -- 70.0 -- 0.0
06/27/2020 21:00 115.64 0.00 -- 72.0 -- 0.0
06/27/2020 20:00 115.63 0.00 -- 72.0 -- 0.0
06/27/2020 19:00 115.62 0.00 -- 72.0 -- 0.0
06/27/2020 18:00 115.64 0.00 -- 73.0 -- 0.0
06/27/2020 17:00 -- -- -- 75.0 -- 0.0
06/27/2020 16:00 -- -- -- 78.0 -- 0.0
06/27/2020 15:00 -- -- -- 77.0 -- 0.0
06/27/2020 14:00 -- -- -- 79.0 -- 0.0
06/27/2020 13:00 -- -- -- 79.0 -- 0.0
06/27/2020 12:00 -- -- -- 80.0 -- 0.0
06/27/2020 11:00 -- -- -- 78.0 -- 0.0
06/27/2020 10:00 -- -- -- 77.0 -- 0.0
06/27/2020 09:00 -- -- -- 70.0 -- 0.0
06/27/2020 08:00 -- -- -- 62.0 -- 0.0
06/27/2020 07:00 -- -- -- 57.0 -- 0.0
06/27/2020 06:00 -- -- -- 58.0 -- 0.0
06/27/2020 05:00 -- -- -- 58.0 -- 0.0
06/27/2020 04:00 -- -- -- 59.0 -- 0.0
06/27/2020 03:00 -- -- -- 61.0 -- 0.0
06/27/2020 02:00 -- -- -- 62.0 -- 0.0
06/27/2020 01:00 -- -- -- 64.0 -- 0.0
06/27/2020 00:00 -- -- 0.00 66.0 -- 0.0